Location: Caltech
(34.1382°N, 118.1253°W)
Time: 01:03:48
(UTC-07:00)

Cosmos 1484 Rocket - Visible Passes

Search period start: 23 July 2014 00:00
Search period end: 02 August 2014 00:00
Orbit: 515 x 575 km, 97.4° (Epoch: 22 July)

Date Brightness Start Highest point End Pass type
(mag) Time Alt. Az. Time Alt. Az. Time Alt. Az.
23 Jul 5.1 21:08:32 10° SSW 21:11:50 24° W 21:15:08 10° NW visible
24 Jul 4.9 21:02:35 10° SSW 21:06:05 28° W 21:09:34 10° NW visible
25 Jul 4.6 20:56:40 10° SSW 21:00:19 33° W 21:03:58 10° NNW visible
26 Jul 4.3 20:50:47 10° SSW 20:54:34 39° W 20:58:20 10° NNW visible
27 Jul 3.9 20:44:56 10° S 20:48:49 46° W 20:52:40 10° NNW visible
28 Jul 3.6 20:39:07 10° S 20:43:04 55° W 20:46:59 10° NNW visible
29 Jul 3.3 20:33:20 10° S 20:37:20 66° W 20:41:17 10° NNW visible
30 Jul 3.0 20:27:34 10° S 20:31:35 79° WSW 20:35:33 10° NNW visible
31 Jul 2.8 20:21:50 10° SSE 20:25:50 86° ENE 20:29:48 10° N visible
01 Aug 2.8 20:16:08 10° SSE 20:20:06 73° ENE 20:24:02 10° N visible
